Location: Arbon
(43.0005°N, 0.7472°E)
Time: 11:07:04
(UTC+00:00)

Okean-O - Pass Details

Date: 22 April 2026
Orbit: 627 x 629 km, 97.9° (Epoch: 15 May)

Event Time Altitude Azimuth Distance (km) Brightness Sun altitude
Exits shadow 20:44:36 44° 151° (SSE) 875 2.9 -19.5°
Maximum altitude 20:45:56 77° 76° (ENE) 652 2.5 -19.7°
Drops below altitude 10° 20:50:19 10° 350° (N) 2,016 5.9 -20.3°
Sets 20:52:31 0° 349° (N) 2,927 6.9 -20.6°
